Chattanooga, TN

1:00 AM EDT on September 25, 2017 (GMT -0400)
Lovell

Weather History for KCHA - November, 2014

Change the Weather History Date:

Tuesday, November 18, 2014

  Actual Average Record
Temperature  
Mean Temperature 29 °F 50 °F  
Max Temperature 35 °F 61 °F 79 °F (1985)
Min Temperature 22 °F 39 °F 18 °F (1891)
Degree Days  
Heating Degree Days 36 15  
Month to date heating degree days 335 213  
Since 1 July heating degree days 455 385  
Moisture  
Dew Point 11 °F    
Average Humidity 45    
Maximum Humidity 63    
Minimum Humidity 27    
Precipitation  
Precipitation T in 0.18 in 2.05 in (2015)
Month to date precipitation 2.06 2.75  
Year to date precipitation 39.49 45.33  
Snow  
Snow T in 0.00 in - ()
Month to date snowfall T 0.0  
Since 1 July snowfall T 0.0  
Since 1 September snowfall T 0.0  
Snow Depth 0.00 in    
Sea Level Pressure  
Sea Level Pressure 30.33 in    
Wind  
Wind Speed 7 mph (WNW)    
Max Wind Speed 16 mph    
Max Gust Speed 21 mph    
Visibility 10 miles    
Events Snow    
T = Trace of Precipitation, MM = Missing Value Source: NWS Daily Summary

Daily Weather History Graph

Daily Weather History Graph

Search for Another Location

Airport or City:

Trip Planner

Search our weather history database for the weather conditions in past years. The results will help you decide how hot, cold, wet, or windy it might be!

Date:

Astronomy

Nov. 18, 2014 Rise Set
Actual Time 7:18 AM EST 5:33 PM EST
Civil Twilight 6:51 AM EST 6:00 PM EST
Nautical Twilight 6:20 AM EST 6:31 PM EST
Astronomical Twilight 5:50 AM EST 7:01 PM EST
Moon 3:24 AM EST (11/18) 3:19 PM EST (11/18)
Length of Visible Light 11h 09m
Length of Day
10h 15m
Waning Crescent, 15% of the Moon is Illuminated
Nov 18
Waning Crescent
Nov 22
New
Nov 29
First Quarter
Dec 6
Full
Dec 14
Last Quarter

Hourly Weather History & Observations

Time (EST) Temp. Windchill Dew Point Humidity Pressure Visibility Wind Dir Wind Speed Gust Speed Precip Events Conditions
12:53 AM 27.0 °F 18.0 °F 15.1 °F 61% 30.23 in 10.0 mi NNW 9.2 mph - 0.00 in   Clear
1:53 AM 27.0 °F 18.7 °F 12.9 °F 56% 30.23 in 10.0 mi NNW 8.1 mph - N/A   Mostly Cloudy
2:53 AM 27.0 °F 18.0 °F 12.0 °F 53% 30.23 in 10.0 mi NW 9.2 mph - N/A   Overcast
3:53 AM 26.1 °F 21.9 °F 12.9 °F 58% 30.25 in 10.0 mi WNW 3.5 mph - N/A   Overcast
4:53 AM 26.1 °F 18.4 °F 14.0 °F 60% 30.25 in 10.0 mi West 6.9 mph - N/A   Mostly Cloudy
5:53 AM 26.1 °F 16.8 °F 15.1 °F 63% 30.27 in 10.0 mi West 9.2 mph - 0.00 in Snow Light Snow
6:53 AM 26.1 °F 17.6 °F 14.0 °F 60% 30.30 in 10.0 mi West 8.1 mph - 0.00 in Snow Light Snow
7:53 AM 26.1 °F 17.6 °F 14.0 °F 60% 30.32 in 10.0 mi West 8.1 mph - 0.00 in Snow Light Snow
8:53 AM 27.0 °F 17.3 °F 14.0 °F 58% 30.35 in 8.0 mi West 10.4 mph - 0.00 in Snow Light Snow
9:53 AM 27.0 °F 18.0 °F 12.0 °F 53% 30.38 in 10.0 mi NW 9.2 mph - 0.00 in   Mostly Cloudy
10:53 AM 28.9 °F 18.2 °F 10.9 °F 47% 30.40 in 10.0 mi WNW 13.8 mph - N/A   Mostly Cloudy
11:53 AM 30.9 °F 20.7 °F 10.9 °F 43% 30.40 in 10.0 mi West 13.8 mph 19.6 mph N/A   Mostly Cloudy
12:53 PM 30.9 °F 24.3 °F 8.1 °F 38% 30.37 in 10.0 mi WSW 6.9 mph - N/A   Scattered Clouds
1:53 PM 33.1 °F 25.5 °F 6.1 °F 32% 30.34 in 10.0 mi NW 9.2 mph - N/A   Partly Cloudy
2:53 PM 35.1 °F 26.4 °F 5.0 °F 28% 30.34 in 10.0 mi WNW 12.7 mph - N/A   Partly Cloudy
3:53 PM 34.0 °F 28.8 °F 3.9 °F 28% 30.34 in 10.0 mi West 5.8 mph - N/A   Partly Cloudy
4:53 PM 33.1 °F 26.9 °F 3.9 °F 29% 30.35 in 10.0 mi West 6.9 mph - N/A   Clear
5:53 PM 30.9 °F 24.3 °F 6.1 °F 35% 30.36 in 10.0 mi West 6.9 mph - N/A   Clear
6:53 PM 30.0 °F 25.2 °F 8.1 °F 40% 30.38 in 10.0 mi West 4.6 mph - N/A   Clear
7:53 PM 28.0 °F 24.2 °F 10.9 °F 49% 30.39 in 10.0 mi SSW 3.5 mph - N/A   Clear
8:53 PM 27.0 °F - 10.9 °F 51% 30.40 in 10.0 mi Calm Calm - N/A   Clear
9:53 PM 26.1 °F - 12.9 °F 58% 30.40 in 10.0 mi Calm Calm - N/A   Clear
10:53 PM 26.1 °F - 10.9 °F 53% 30.40 in 10.0 mi Calm Calm - N/A   Clear
11:53 PM 23.0 °F - 15.1 °F 72% 30.41 in 10.0 mi Calm Calm - N/A   Clear